Weather in Feodosia

Russia / Republic of Crimea     45˚01′55″N   35˚22′52″E
temp.,
°C
wind,
m/s
gust,
m/s
humid.,
%
clouds,
%
prec.,
mm/h
press.,
hPa
HPBL,
m
2 december, wed
wed200:00+8˚nnw448346 0.0 1020175
03:00+8˚nnw448456 0.0 1020180
06:00+8˚nnw448592 0.0 1021174
09:00+8˚nnw338563 0.0 1022170
12:00+9˚nnw11808 0.0 1023183
15:00+9˚ssw22764 0.0 1022214
18:00+10˚ssw23779 0.0 1023258
21:00+10˚wnw117636 0.0 1023168
3 december, thu
thu300:00+10˚nnw217777 0.0 1024122
03:00+9˚nnw227988 0.0 1024151
06:00+9˚nnw448398 0.0 1024179
09:00+8˚n448672 0.0 1025208
12:00+9˚ne227840 0.0 1024232
15:00+11˚nne126952 0.0 1024168
18:00+11˚ne34750 0.0 1023203
21:00+9˚nne34780 0.0 1023205
4 december, fri
fri400:00+9˚nne44810 0.0 1023195
03:00+9˚nne44810 0.0 1022190
06:00+9˚nne44830 0.0 1022203
09:00+9˚ene45850 0.0 1022241
12:00+10˚e45790 0.0 1022276
15:00+11˚e45780 0.0 1021204
18:00+10˚ene67792 0.0 1021229
21:00+10˚ene68781 0.0 1022277
5 december, sat
sat500:00+9˚ene57800 0.0 1022307
03:00+8˚ene56820 0.0 1022322
06:00+8˚ene57821 0.0 1022353
09:00+8˚ene68841 0.0 1022406
12:00+9˚ne577741 0.0 1023483
15:00+9˚ne677425 0.0 1022526
18:00+7˚ne78790 0.0 1023511
21:00+7˚ne79810 0.0 1023524
6 december, sun
sun600:00+6˚ne79833 0.0 1023516
03:00+5˚ne798412 0.0 1023540
06:00+5˚ne898464 0.0 1023548
09:00+4˚ne898765 0.0 1023547
12:00+5˚ne788197 0.0 1023641
15:00+5˚ne787893 0.0 1022717
18:00+5˚ne898052 0.0 1022703
21:00+5˚ene788162 0.0 1023649